[Iaude] MPEC E166: 2024 EO3 [a=2.46,e=0.61,i=5.7,H=24.8]

mpec at cfa.harvard.edu mpec at cfa.harvard.edu
Wed Mar 13 08:48:49 EDT 2024


M.P.E.C. 2024-E166                               Issued 2024 March 13, 12:47 UT

     The Minor Planet Electronic Circulars contain information on unusual
         minor planets, routine data on comets and natural satellites,
         and occasional editorial announcements.  They are published
    on behalf of Division F of the International Astronomical Union by the
          Minor Planet Center, Smithsonian Astrophysical Observatory,
                          Cambridge, MA 02138, U.S.A.
			  
             Prepared using the Tamkin Foundation Computer Network

                              MPC at CFA.HARVARD.EDU
            URL https://www.minorplanetcenter.net/    ISSN 1523-6714

                                    2024 EO3                                    


Observations:
     K24E03O* C2024 03 11.45838111 35 12.980+20 49 39.76         21.18GVEE166V00
     K24E03O  C2024 03 11.46401811 35 13.769+20 49 32.81         21.46GVEE166V00
     K24E03O  C2024 03 11.46961611 35 14.536+20 49 25.82         21.36GVEE166V00
     K24E03O  C2024 03 11.47522111 35 15.338+20 49 19.02         20.95GVEE166V00
     K24E03O 1C2024 03 11.96027 11 36 37.91 +20 39 39.3          21.4 VXEE166033
     K24E03O 1C2024 03 11.96270 11 36 38.26 +20 39 36.7          21.6 VXEE166033
     K24E03O 1C2024 03 11.96514 11 36 38.64 +20 39 33.5          21.4 VXEE166033
     K24E03O 6C2024 03 12.00007 11 36 44.60 +20 39 07.7          21.1 GVEE166Z84
     K24E03O 6C2024 03 12.01156 11 36 46.21 +20 38 53.7          21.2 GVEE166Z84
     K24E03O 6C2024 03 12.02305 11 36 47.81 +20 38 39.3          21.1 GVEE166Z84
     K24E03O KB2024 03 12.04661 11 36 50.48 +20 37 58.3                VEE166204
     K24E03O KB2024 03 12.05136311 36 51.77 +20 37 57.7          20.0 GXEE166958
     K24E03O KB2024 03 12.05658311 36 52.51 +20 37 49.3          19.8 GXEE166958
     K24E03O KB2024 03 12.06182911 36 53.20 +20 37 43.3          19.8 GXEE166958
     K24E03O KB2024 03 12.07476 11 36 54.60 +20 37 21.5          21.1 GVEE166204
     K24E03O 1C2024 03 12.08127 11 36 55.59 +20 37 07.3          21.1 VXEE166033
     K24E03O 1C2024 03 12.08266 11 36 55.83 +20 37 05.6          20.5 VXEE166033
     K24E03O 1C2024 03 12.08405 11 36 56.00 +20 37 03.4          20.8 VXEE166033
     K24E03O 1C2024 03 12.08544 11 36 56.22 +20 37 02.2          21.2 VXEE166033
     K24E03O 1C2024 03 12.08683 11 36 56.42 +20 37 00.1          21.1 VXEE166033
     K24E03O KB2024 03 12.10296 11 36 58.79 +20 36 45.0                VEE166204
     K24E03O KC2024 03 12.14692211 37 11.53 +20 35 57.9          21.4 GVEE166H21
     K24E03O KC2024 03 12.15531511 37 12.80 +20 35 48.3          21.5 GVEE166H21
     K24E03O KC2024 03 12.15848411 37 13.26 +20 35 44.7          21.5 GVEE166H21
     K24E03O KC2024 03 12.19908711 37 20.930+20 35 00.30         21.19GVEE166I52
     K24E03O KC2024 03 12.19991 11 37 21.13 +20 34 59.7          20.7 GVEE166291
     K24E03O KC2024 03 12.20559 11 37 21.97 +20 34 52.9          21.5 GVEE166291
     K24E03O KC2024 03 12.21081711 37 22.670+20 34 46.40               VEE166I52
     K24E03O KC2024 03 12.21171 11 37 22.88 +20 34 45.6          20.8 GVEE166291
     K24E03O KC2024 03 12.21314811 37 23.020+20 34 43.60               VEE166I52
     K24E03O KC2024 03 12.21548811 37 23.330+20 34 40.90         20.31GVEE166I52
     K24E03O KB2024 03 12.98259011 39 38.67 +20 17 12.7          20.4 GXEE166I93
     K24E03O KB2024 03 12.98677711 39 39.33 +20 17 06.7          20.4 GXEE166I93
     K24E03O KB2024 03 12.99057911 39 39.96 +20 17 01.3          20.2 GXEE166I93

Observer details:
033 Karl Schwarzschild Observatory, Tautenburg.  Observers S. Melnikov, C.
    Hogner, F. Ludwig, M. Hartmann, B. Stecklum.  Measurer B. Stecklum.
    1.34-m f/3 Schmidt + CCD.
204 Schiaparelli Observatory.  Observer L. Buzzi.  0.84-m f/3.5 reflector +
    CMO.
291 LPL/Spacewatch II.  Observer A. F. Tubbiolo.  1.8-m f/2.7 reflector + CCD.
958 Observatoire de Dax.  Observer P. Dupouy.  0.50-m f/4.5 Reflector + CMO.
H21 Astronomical Research Observatory, Westfield.  Observer R. Holmes.
    Measurers T. Linder, R. Holmes, L. Horn.  0.76-m f/3.0 astrograph + CCD.
I52 Steward Observatory, Mt. Lemmon Station.  Observer H. Groeller.  Measurers
    T. Beuden, V. F. Carvajal, D. Fay, J. B. Fazekas, D. C. Fuls, A. R. Gibbs,
    A. D. Grauer, H. Groeller, J. K. Hogan, R. A. Kowalski, S. M. Larson, G.
    J. Leonard, D. Rankin, R. L. Seaman, F. C. Shelly, K. W. Wierzchos.  1.0-m
    prime focus + CCD.
I93 St Pardon de Conques.  Observer F. Losse.  0.40-m f/3.7 reflector + CCD.
V00 Kitt Peak-Bok.  Observer M. J. Brucker.  Measurers M. J. Brucker, C. E.
    Woodward, T. Beuden, V. F. Carvajal, D. Fay, J. B. Fazekas, D. C. Fuls, A.
    R. Gibbs, H. Groeller, J. K. Hogan, R. A. Kowalski, S. M. Larson, C.
    Lejoly, G. J. Leonard, R. A. Mastaler, R. S. McMillan, D. Rankin, R. L.
    Seaman, F. C. Shelly, K. W. Wierzchos.  2.25-m reflector + 4x4K mosaic
    CCD.
Z84 Calar Alto-Schmidt.  Observers M. Micheli, R. Kresken, L. Conversi.
    Measurers R. Kresken, M. Micheli, F. Ocana.  0.8-m f/3 Schmidt + CCD.

Orbital elements:
2024 EO3                                                 Earth MOID = 0.0078 AU
Epoch 2024 Mar. 31.0 TT = JDT 2460400.5                 Veres                   
M 354.51385              (2000.0)            P               Q                  
n   0.25541742     Peri.  211.90609     -0.76690578     +0.64160674             
a   2.4601922      Node     8.05022     -0.56576677     -0.66562743             
e   0.6102994      Incl.    5.74202     -0.30292488     -0.38115733             
P   3.86           H   24.83          G   0.15           U   8                  
Residuals in seconds of arc
240311 V00  0.1-  0.0     240312 958  0.1+  0.0     240312 I52  0.1-  0.0
240311 V00  0.1+  0.0     240312 958  0.8-  0.7+    240312 291  0.1+  0.0
240311 V00  0.1-  0.1-    240312 204  0.2+  0.5-    240312 291  0.0   0.2-
240311 V00  0.1+  0.0     240312 033  0.2-  0.1+    240312 I52  0.2-  0.2-
240311 033  0.4+  0.3+    240312 033  0.2+  0.2+    240312 291  0.0   0.3-
240311 033  0.4+  0.6+    240312 033  0.4-  0.1-    240312 I52  0.1-  0.2-
240311 033  0.8+  0.4+    240312 033  0.2-  0.5+    240312 I52  0.6-  0.2-
240312 Z84  0.2-  0.3+    240312 033  0.4-  0.2+    240312 I93  0.1+  0.3+
240312 Z84  0.1-  0.2+    240312 204  0.1+  0.0     240312 I93  0.1-  0.2+
240312 Z84  0.1-  0.2-    240312 H21  0.1-  0.3-    240312 I93  0.1+  0.2+
240312 204  0.1+  0.0     240312 H21  0.2+  0.0
240312 958  0.2+  1.8+    240312 H21  0.1+  0.1+

Ephemeris:
2024 EO3                 a,e,i = 2.46, 0.61, 6                   q = 0.9587
Date    TT    R. A. (2000) Decl.     Delta      r    Elong.  Phase     V
2024 02 12    11 03 31.2 +21 53 08   0.3480  1.3170   158.5    16.0    24.0
...
2024 02 27    11 14 54.6 +22 22 36   0.2168  1.1997   163.6    13.5    22.7
...
2024 03 06    11 24 19.8 +21 56 26   0.1558  1.1421   163.2    14.5    21.9
...
2024 03 12    11 36 43.9 +20 39 31   0.1132  1.1023   162.6    15.7    21.2
2024 03 13    11 39 41.0 +20 17 23   0.1064  1.0959   162.6    15.8    21.0
2024 03 14    11 43 01.0 +19 51 11   0.09965 1.0897   162.6    15.8    20.9
...
2024 03 20    12 17 04.4 +14 38 01   0.06086 1.0547   164.8    14.3    19.7
...
2024 03 28    15 36 24.3 -21 30 44   0.02576 1.0150   130.5    48.4    18.7
...
2024 04 12    21 44 24.1 -33 37 01   0.09930 0.9675    66.7   107.9    23.8

M. P. C. Staff               (C) Copyright 2024 MPC           M.P.E.C. 2024-E166





More information about the Iaude mailing list